[[{"header":{"parameterUnit":"m.s-1","parameterCategory":2,"la1":30.2992,"la2":30.254,"lo1":-89.0895,"lo2":-89.0443,"dy":0.0025,"dx":0.0025,"nx":19,"ny":19,"refTime":"2026-03-20T21:00:00:Z","depth":"0","parameterNumber":2,"parameterNumberName":"U-component_of_CURRENTS"},"data":[0,0,0,-0.1547,-0.1548,-0.1578,-0.1578,-0.1513,-0.1512,0,0,0,0,0,0,0,0,0,0,0,-0.1524,-0.1524,-0.1547,-0.1548,-0.1578,-0.1578,-0.1513,-0.1512,0,0,0,0,0,0,0,0,0,0,0,-0.1523,-0.1524,-0.1524,-0.1548,-0.1578,-0.1578,-0.1513,-0.1514,0,0,0,0,0,0,0,0,0,0,-0.1497,-0.1494,-0.1524,-0.1524,-0.1549,-0.1578,-0.1578,-0.1515,-0.1514,-0.1472,0,-0.1476,0,-0.1499,-0.1506,-0.1506,0,0,0,-0.1539,-0.1495,-0.1506,-0.1524,-0.1549,-0.1578,-0.1562,-0.1515,-0.1514,-0.147,-0.1475,-0.1474,-0.1498,-0.1505,-0.1505,-0.1415,-0.1415,0,0,-0.1538,-0.1523,-0.1507,-0.1505,-0.1553,-0.1561,-0.1563,-0.1515,-0.1507,-0.1475,-0.1473,-0.1497,-0.1505,-0.1504,-0.1416,-0.1415,0,0,0,-0.1539,-0.1522,-0.1537,-0.1506,-0.1524,-0.1562,-0.1565,-0.1509,-0.1515,-0.1473,-0.1496,-0.1504,-0.1503,-0.1416,-0.1416,-0.1387,0,0,0,-0.1537,-0.1524,-0.1536,-0.1527,-0.1526,-0.1533,-0.1559,-0.1518,-0.1515,-0.1497,-0.1504,-0.1502,-0.1416,-0.1416,-0.1389,-0.139,0,0,0,-0.1523,-0.1523,-0.1526,-0.1526,-0.1546,-0.1535,-0.1538,-0.1519,-0.1528,-0.1506,-0.1502,-0.1417,-0.1416,-0.139,-0.1392,-0.1344,0,0,0,-0.1507,-0.1506,-0.1526,-0.1536,-0.1546,-0.1564,-0.1539,-0.154,-0.1523,-0.1504,-0.1416,-0.1416,-0.1391,-0.1393,-0.1345,-0.1068,-0.1038,0,0,-0.1498,-0.1505,-0.1515,-0.1534,-0.1552,-0.156,-0.1539,-0.1504,-0.1492,-0.1424,-0.1423,-0.1388,-0.1392,-0.1344,-0.1025,-0.0996,0,0,0,-0.1508,-0.1509,-0.1522,-0.1538,-0.1558,-0.1537,-0.1523,-0.1489,-0.1429,-0.1481,-0.1381,-0.1385,-0.1355,-0.1191,-0.1168,-0.0899,-0.1412,-0.1412,-0.1412,-0.148,-0.1501,-0.1501,-0.1516,-0.152,-0.1509,-0.1481,-0.1425,-0.1412,-0.1374,-0.1355,-0.1295,-0.1118,-0.1098,-0.0826,-0.1341,-0.1341,-0.1341,-0.1341,-0.1461,-0.1458,-0.1465,-0.147,-0.146,-0.1439,-0.1391,-0.1374,-0.1301,-0.131,-0.1281,-0.1162,-0.1071,-0.0789,-0.1339,-0.1339,-0.134,-0.134,-0.134,-0.1445,-0.1435,-0.1441,-0.1422,-0.1391,-0.1378,-0.1294,-0.1299,-0.1277,-0.1259,-0.1051,-0.1048,-0.0804,-0.1225,-0.1225,-0.1225,-0.1225,-0.1225,-0.1225,-0.1418,-0.1414,-0.137,-0.1365,-0.1324,-0.128,-0.124,-0.1186,-0.1062,-0.1,-0.0997,-0.0715,-0.1259,-0.1269,-0.1221,-0.1222,-0.1222,-0.1223,-0.1223,-0.1357,-0.1355,-0.1279,-0.1234,-0.1138,-0.0999,-0.1026,-0.0815,-0.0784,-0.0664,-0.0333,-0.0844,-0.0823,-0.0838,-0.0836,-0.0681,-0.0681,-0.0681,-0.0681,-0.1286,-0.1295,-0.1121,-0.1003,-0.09,-0.0832,-0.0522,-0.0349,-0.0096,0.0119,0.0036,0.012,0.0086,0.0159,0.0122,0.0143,0.0543,0.0545,0.0546,-0.1184,-0.1155,-0.0976,-0.0878,-0.075,-0.0593,-0.0236,0.0153,0.0551,0.061,0.0355,0.0304,0.0428,0.0352,0.0461,0.0387,0.0415,0,0]},{"header":{"parameterUnit":"m.s-1","parameterCategory":2,"la1":30.2992,"la2":30.254,"lo1":-89.0895,"lo2":-89.0443,"dy":0.0025,"dx":0.0025,"nx":19,"ny":19,"refTime":"2026-03-20T21:00:00:Z","depth":"0","parameterNumber":3,"parameterNumberName":"V-component_of_CURRENTS"},"data":[0,0,0,-0.0443,-0.0443,-0.0411,-0.041,-0.0314,-0.0313,0,0,0,0,0,0,0,0,0,0,0,-0.046,-0.0461,-0.0443,-0.0443,-0.0411,-0.041,-0.0314,-0.0313,0,0,0,0,0,0,0,0,0,0,0,-0.046,-0.0461,-0.0461,-0.0443,-0.0411,-0.041,-0.0314,-0.0349,0,0,0,0,0,0,0,0,0,0,-0.0385,-0.0403,-0.0461,-0.0461,-0.0443,-0.0411,-0.041,-0.0351,-0.0347,-0.0318,0,-0.033,0,-0.0322,-0.0307,-0.0307,0,0,0,-0.0428,-0.0407,-0.0412,-0.0461,-0.0443,-0.0411,-0.0421,-0.0349,-0.0344,-0.0312,-0.0329,-0.0325,-0.032,-0.0306,-0.0306,-0.0258,-0.0258,0,0,-0.043,-0.0434,-0.0416,-0.041,-0.0455,-0.0422,-0.042,-0.0346,-0.0341,-0.0328,-0.0323,-0.0319,-0.0306,-0.0305,-0.0258,-0.0258,0,0,0,-0.0445,-0.0436,-0.0443,-0.0413,-0.0413,-0.0422,-0.0419,-0.0344,-0.0351,-0.0322,-0.0318,-0.0305,-0.0304,-0.0257,-0.0258,-0.0312,0,0,0,-0.0445,-0.0446,-0.0444,-0.0443,-0.0416,-0.0383,-0.0418,-0.0356,-0.0348,-0.0318,-0.0305,-0.0303,-0.0257,-0.0257,-0.031,-0.0326,0,0,0,-0.0458,-0.0446,-0.0453,-0.0444,-0.0438,-0.0384,-0.0386,-0.0354,-0.0345,-0.0307,-0.0303,-0.0257,-0.0257,-0.0309,-0.0323,-0.0291,0,0,0,-0.0449,-0.0469,-0.0453,-0.0469,-0.0439,-0.045,-0.0386,-0.0374,-0.0349,-0.0305,-0.0257,-0.0258,-0.0308,-0.0321,-0.029,-0.0181,-0.0176,0,0,-0.0471,-0.0472,-0.0482,-0.0467,-0.0493,-0.0452,-0.0452,-0.0388,-0.0341,-0.0274,-0.0273,-0.0311,-0.0323,-0.0291,-0.0206,-0.02,0,0,0,-0.0486,-0.0496,-0.0502,-0.0508,-0.051,-0.0495,-0.0447,-0.041,-0.035,-0.033,-0.0304,-0.031,-0.0288,-0.022,-0.0216,0.001,-0.026,-0.026,-0.0259,-0.0515,-0.0517,-0.0538,-0.0544,-0.0547,-0.0518,-0.0494,-0.0431,-0.0389,-0.037,-0.035,-0.0357,-0.0288,-0.0283,-0.0053,-0.0349,-0.0349,-0.0349,-0.0349,-0.0551,-0.0555,-0.0559,-0.0579,-0.057,-0.0566,-0.051,-0.0477,-0.0411,-0.0386,-0.0362,-0.0276,-0.0281,-0.0037,-0.0352,-0.0352,-0.0351,-0.0351,-0.0351,-0.0569,-0.0566,-0.0583,-0.0596,-0.0598,-0.0578,-0.053,-0.0499,-0.0445,-0.0437,-0.0306,-0.0303,-0.0088,-0.0406,-0.0406,-0.0406,-0.0406,-0.0406,-0.0406,-0.0565,-0.0581,-0.0583,-0.0605,-0.0599,-0.0578,-0.0535,-0.0492,-0.04,-0.0342,-0.034,-0.005,-0.0373,-0.037,-0.0405,-0.0405,-0.0406,-0.0406,-0.0406,-0.0542,-0.0557,-0.0554,-0.0553,-0.053,-0.0456,-0.0463,-0.0346,-0.0314,-0.0249,0.0067,-0.0271,-0.0229,-0.0231,-0.0222,-0.0217,-0.0217,-0.0217,-0.0217,-0.051,-0.0525,-0.0483,-0.0455,-0.042,-0.0377,-0.0204,-0.0111,0.0089,0.0254,0.027,0.0328,0.031,0.0387,0.0372,0.0394,0.0555,0.0556,0.0557,-0.0465,-0.0466,-0.0409,-0.0395,-0.0351,-0.0247,-0.0022,0.0226,0.0498,0.0608,0.0564,0.0531,0.0631,0.0585,0.0714,0.0674,0.0712,0,0]}],[{"header":{"parameterUnit":"m.s-1","parameterCategory":2,"la1":30.2992,"la2":30.254,"lo1":-89.0895,"lo2":-89.0443,"dy":0.0025,"dx":0.0025,"nx":19,"ny":19,"refTime":"2026-03-20T21:00:00:Z","depth":"2","parameterNumber":2,"parameterNumberName":"U-component_of_CURRENTS"},"data":[0,0,0,-0.2857,-0.2859,-0.2903,-0.2903,-0.286,-0.2859,0,0,0,0,0,0,0,0,0,0,0,-0.2879,-0.2881,-0.2857,-0.2859,-0.2903,-0.2903,-0.286,-0.2859,0,0,0,0,0,0,0,0,0,0,0,-0.2878,-0.288,-0.2883,-0.2859,-0.2903,-0.2903,-0.286,-0.2844,0,0,0,0,0,0,0,0,0,0,-0.281,-0.283,-0.2879,-0.2883,-0.286,-0.2903,-0.2903,-0.2844,-0.2845,-0.2821,0,-0.2887,0,-0.2869,-0.2857,-0.2857,0,0,0,-0.2828,-0.2829,-0.2869,-0.2883,-0.2861,-0.2904,-0.2875,-0.2845,-0.2846,-0.2821,-0.2886,-0.2884,-0.2868,-0.2857,-0.2857,-0.2817,-0.2817,0,0,-0.2826,-0.2841,-0.2869,-0.2872,-0.2948,-0.2873,-0.2876,-0.2846,-0.2861,-0.2886,-0.2883,-0.2867,-0.2857,-0.2856,-0.2818,-0.2817,0,0,0,-0.2839,-0.284,-0.288,-0.2874,-0.2889,-0.2876,-0.2879,-0.2862,-0.2887,-0.2882,-0.2867,-0.2856,-0.2856,-0.2818,-0.2818,-0.2787,0,0,0,-0.2836,-0.285,-0.2881,-0.2883,-0.2892,-0.2881,-0.2895,-0.289,-0.2884,-0.2867,-0.2856,-0.2856,-0.2818,-0.2818,-0.2788,-0.2748,0,0,0,-0.2863,-0.2849,-0.2886,-0.2885,-0.2917,-0.2883,-0.2902,-0.2888,-0.2875,-0.2857,-0.2856,-0.2818,-0.2818,-0.2789,-0.2751,-0.258,0,0,0,-0.2829,-0.2932,-0.2888,-0.292,-0.2918,-0.2896,-0.2902,-0.2868,-0.285,-0.2856,-0.2818,-0.2818,-0.279,-0.2752,-0.2584,-0.2335,-0.2295,0,0,-0.2936,-0.2945,-0.2939,-0.29,-0.2852,-0.2883,-0.2862,-0.2851,-0.2835,-0.2816,-0.2816,-0.2788,-0.2751,-0.2581,-0.2313,-0.2273,0,0,0,-0.2948,-0.2947,-0.2914,-0.287,-0.2848,-0.2837,-0.285,-0.2835,-0.2801,-0.2833,-0.2788,-0.2765,-0.2658,-0.2518,-0.2487,-0.2816,-0.2816,-0.2816,-0.2816,-0.302,-0.2948,-0.2917,-0.2852,-0.2844,-0.281,-0.2784,-0.2779,-0.2793,-0.2766,-0.2742,-0.2596,-0.2451,-0.2424,-0.2759,-0.2759,-0.2759,-0.2759,-0.2759,-0.3029,-0.2968,-0.2904,-0.2874,-0.2843,-0.2846,-0.2774,-0.2756,-0.2636,-0.2706,-0.2602,-0.2498,-0.2387,-0.2756,-0.2757,-0.2757,-0.2757,-0.2757,-0.2758,-0.2987,-0.2972,-0.296,-0.2892,-0.2858,-0.2831,-0.2678,-0.2637,-0.2576,-0.2495,-0.2244,-0.2242,-0.2508,-0.2411,-0.241,-0.2409,-0.2408,-0.2407,-0.2407,-0.2955,-0.2951,-0.2894,-0.2862,-0.281,-0.2711,-0.2565,-0.2429,-0.2212,-0.2151,-0.2148,-0.2475,-0.2487,-0.2485,-0.2393,-0.2395,-0.2397,-0.2399,-0.24,-0.2827,-0.2862,-0.2753,-0.2704,-0.2562,-0.2359,-0.23,-0.1946,-0.1804,-0.1633,-0.1912,-0.1929,-0.188,-0.1904,-0.1887,-0.1644,-0.1644,-0.1644,-0.1644,-0.272,-0.2736,-0.2541,-0.2416,-0.2278,-0.2163,-0.1722,-0.1461,-0.1373,-0.1391,-0.1403,-0.1481,-0.1514,-0.1453,-0.1488,-0.1467,-0.1114,-0.1114,-0.1114,-0.2553,-0.2538,-0.2343,-0.2274,-0.2132,-0.1905,-0.1421,-0.0965,-0.0933,-0.1108,-0.1467,-0.1578,-0.173,-0.1768,-0.1712,-0.1753,-0.1733,0,0]},{"header":{"parameterUnit":"m.s-1","parameterCategory":2,"la1":30.2992,"la2":30.254,"lo1":-89.0895,"lo2":-89.0443,"dy":0.0025,"dx":0.0025,"nx":19,"ny":19,"refTime":"2026-03-20T21:00:00:Z","depth":"2","parameterNumber":3,"parameterNumberName":"V-component_of_CURRENTS"},"data":[0,0,0,-0.0245,-0.0242,-0.0074,-0.0073,0.0177,0.0179,0,0,0,0,0,0,0,0,0,0,0,-0.0297,-0.0296,-0.0245,-0.0242,-0.0074,-0.0073,0.0177,0.0179,0,0,0,0,0,0,0,0,0,0,0,-0.0298,-0.0297,-0.0295,-0.0241,-0.0074,-0.0073,0.0176,0.0045,0,0,0,0,0,0,0,0,0,0,-0.0121,-0.0186,-0.0297,-0.0295,-0.0241,-0.0075,-0.0073,0.0038,0.0053,0.0106,0,0.0128,0,0.0151,0.0195,0.0196,0,0,0,-0.0224,-0.0199,-0.0151,-0.0295,-0.0239,-0.0075,-0.0145,0.0046,0.0063,0.0125,0.0131,0.014,0.0155,0.0197,0.0198,0.0399,0.0399,0,0,-0.0234,-0.0264,-0.0163,-0.0141,-0.0199,-0.015,-0.014,0.0056,0.0072,0.0132,0.0146,0.0159,0.0198,0.02,0.0398,0.0399,0,0,0,-0.0272,-0.027,-0.0228,-0.0151,-0.0128,-0.0146,-0.0134,0.0063,0.0078,0.0149,0.0162,0.02,0.0202,0.0398,0.0398,0.0417,0,0,0,-0.0277,-0.0294,-0.0232,-0.0248,-0.0132,-0.0037,-0.0131,0.0065,0.0087,0.0161,0.02,0.0205,0.0397,0.0398,0.0415,0.0375,0,0,0,-0.0304,-0.0297,-0.0278,-0.025,-0.0186,-0.004,-0.0013,0.007,0.0095,0.0196,0.0205,0.0397,0.0398,0.0414,0.0374,0.0374,0,0,0,-0.0339,-0.031,-0.0279,-0.0263,-0.0187,-0.0139,-0.0014,0.0046,0.0118,0.0201,0.0397,0.0398,0.0413,0.0374,0.0374,0.0272,0.0265,0,0,-0.0324,-0.0309,-0.0308,-0.0277,-0.0296,-0.016,-0.0071,0.0082,0.0162,0.0338,0.0343,0.0416,0.0374,0.0374,0.033,0.032,0,0,0,-0.0321,-0.0323,-0.033,-0.0325,-0.0283,-0.0159,-0.0022,0.0094,0.0287,0.021,0.0431,0.0403,0.0403,0.0342,0.0336,0.0403,0.0403,0.0403,0.0403,-0.0374,-0.0367,-0.0375,-0.0347,-0.0293,-0.0138,-0.0003,0.02,0.0268,0.0366,0.0432,0.0454,0.0393,0.0386,0.0473,0.0473,0.0473,0.0473,0.0473,-0.0412,-0.042,-0.0377,-0.0355,-0.0244,-0.0117,0.0121,0.0228,0.0421,0.047,0.047,0.038,0.0379,0.0475,0.0474,0.0474,0.0474,0.0474,0.0474,-0.0483,-0.0468,-0.0427,-0.0369,-0.0232,-0.0065,0.0077,0.0251,0.0407,0.0444,0.0373,0.0371,0.0432,0.0453,0.0453,0.0452,0.0452,0.0452,0.0452,-0.0556,-0.0515,-0.0487,-0.0387,-0.0316,-0.0185,0.0034,0.0118,0.025,0.0347,0.0347,0.0446,0.0447,0.043,0.045,0.045,0.0451,0.0451,0.0451,-0.0637,-0.0597,-0.0578,-0.0526,-0.0402,-0.0362,-0.0195,-0.0068,0.0055,0.0088,0.0302,0.0306,0.0278,0.0282,0.0261,0.0236,0.0236,0.0236,0.0236,-0.0699,-0.0678,-0.0651,-0.0606,-0.0556,-0.0445,-0.0413,-0.022,0.0,0.0157,0.0161,0.0161,0.017,0.0137,0.0145,0.0122,0.006,0.006,0.006,-0.0757,-0.0734,-0.0728,-0.0661,-0.0612,-0.0563,-0.052,-0.0204,0.014,0.0059,0.0194,0.0211,0.0222,0.0233,0.019,0.02,0.0165,0,0]}],[{"header":{"parameterUnit":"m.s-1","parameterCategory":2,"la1":30.2992,"la2":30.254,"lo1":-89.0895,"lo2":-89.0443,"dy":0.0025,"dx":0.0025,"nx":19,"ny":19,"refTime":"2026-03-20T21:00:00:Z","depth":"4","parameterNumber":2,"parameterNumberName":"U-component_of_CURRENTS"},"data":[0,0,0,-0.1257,-0.126,-0.1402,-0.1403,-0.1542,-0.1543,0,0,0,0,0,0,0,0,0,0,0,-0.1211,-0.1212,-0.1257,-0.126,-0.1402,-0.1403,-0.1542,-0.1543,0,0,0,0,0,0,0,0,0,0,0,-0.1211,-0.1212,-0.1213,-0.126,-0.1402,-0.1403,-0.1542,-0.1447,0,0,0,0,0,0,0,0,0,0,-0.1315,-0.1285,-0.1212,-0.1213,-0.1261,-0.1402,-0.1403,-0.1443,-0.1453,-0.1462,0,-0.1484,0,-0.151,-0.155,-0.1551,0,0,0,-0.127,-0.1277,-0.1304,-0.1213,-0.1262,-0.1402,-0.1341,-0.1449,-0.146,-0.1474,-0.1487,-0.1492,-0.1513,-0.1551,-0.1552,-0.167,-0.1671,0,0,-0.1262,-0.125,-0.1296,-0.131,-0.13,-0.1336,-0.1345,-0.1457,-0.1474,-0.1487,-0.1496,-0.1515,-0.1552,-0.1553,-0.167,-0.167,0,0,0,-0.1233,-0.1244,-0.127,-0.1304,-0.133,-0.134,-0.1351,-0.147,-0.1475,-0.1497,-0.1517,-0.1552,-0.1554,-0.1669,-0.167,-0.1656,0,0,0,-0.1228,-0.1226,-0.1266,-0.1262,-0.1328,-0.141,-0.1361,-0.1467,-0.1481,-0.1516,-0.1552,-0.1555,-0.1669,-0.1669,-0.1655,-0.1632,0,0,0,-0.1205,-0.1224,-0.1238,-0.126,-0.1316,-0.1409,-0.1422,-0.1471,-0.1492,-0.1551,-0.1555,-0.1668,-0.1669,-0.1655,-0.1632,-0.1615,0,0,0,-0.119,-0.1201,-0.1238,-0.1266,-0.1314,-0.1393,-0.1422,-0.1502,-0.1555,-0.1553,-0.1669,-0.167,-0.1654,-0.1631,-0.1615,-0.1391,0,0,0,-0.1185,-0.1201,-0.1215,-0.1251,-0.1303,-0.1374,-0.1449,-0.1533,-0.1573,-0.1629,-0.1633,-0.1656,-0.1632,-0.1615,-0.1461,0,0,0,0,-0.1202,-0.12,-0.1226,-0.1273,-0.1348,-0.1422,-0.1512,-0.1549,-0.1628,-0.1608,-0.1683,-0.1668,-0.1658,-0.153,-0.1675,-0.1675,-0.1675,-0.1675,-0.1675,-0.1139,-0.1185,-0.1221,-0.1284,-0.1347,-0.1468,-0.1526,-0.1596,-0.1639,-0.1675,-0.1678,-0.1683,-0.155,-0.1712,-0.1712,-0.1712,-0.1712,-0.1712,-0.1712,-0.1117,-0.1132,-0.1213,-0.126,-0.1357,-0.1432,-0.1545,-0.1592,-0.1656,-0.1688,-0.1679,-0.1551,-0.1711,-0.1711,-0.1711,-0.1711,-0.1711,-0.1711,-0.1711,-0.1068,-0.1083,-0.114,-0.122,-0.1303,-0.1408,-0.1452,-0.1558,-0.1629,-0.1645,-0.151,-0.1668,-0.1644,-0.1649,-0.1648,-0.1648,-0.1648,-0.1648,-0.1648,-0.0999,-0.1058,-0.1077,-0.1162,-0.1202,-0.1274,-0.1403,-0.1427,-0.1529,-0.1461,-0.1642,-0.1661,-0.1663,-0.1641,-0.1645,-0.1646,-0.1646,-0.1646,-0.1647,-0.0918,-0.0955,-0.0964,-0.0998,-0.107,-0.1114,-0.1253,-0.1254,-0.1258,-0.1232,-0.1358,-0.1373,-0.1349,-0.1359,-0.1325,-0.1236,-0.1233,-0.123,0,-0.0849,-0.0869,-0.0863,-0.0871,-0.0882,-0.1009,-0.0956,-0.1011,-0.1101,-0.1067,-0.1284,-0.1428,-0.1437,-0.1415,-0.1419,-0.138,0,0,0,-0.0798,-0.08,-0.0756,-0.0773,-0.0787,-0.0835,-0.0934,-0.0894,-0.11,-0.1018,-0.1156,-0.1176,-0.1445,-0.1638,-0.1637,-0.164,-0.1604,0,0]},{"header":{"parameterUnit":"m.s-1","parameterCategory":2,"la1":30.2992,"la2":30.254,"lo1":-89.0895,"lo2":-89.0443,"dy":0.0025,"dx":0.0025,"nx":19,"ny":19,"refTime":"2026-03-20T21:00:00:Z","depth":"4","parameterNumber":3,"parameterNumberName":"V-component_of_CURRENTS"},"data":[0,0,0,-0.0405,-0.0405,-0.041,-0.041,-0.0381,-0.0381,0,0,0,0,0,0,0,0,0,0,0,-0.0408,-0.0408,-0.0405,-0.0405,-0.041,-0.041,-0.0381,-0.0381,0,0,0,0,0,0,0,0,0,0,0,-0.0408,-0.0408,-0.0408,-0.0405,-0.041,-0.041,-0.0381,-0.0387,0,0,0,0,0,0,0,0,0,0,-0.0387,-0.0394,-0.0408,-0.0408,-0.0405,-0.041,-0.041,-0.0387,-0.0386,-0.0368,0,-0.0372,0,-0.0372,-0.0378,-0.0378,0,0,0,-0.0407,-0.0395,-0.0395,-0.0408,-0.0405,-0.041,-0.0408,-0.0387,-0.0386,-0.0367,-0.0372,-0.0371,-0.0372,-0.0377,-0.0377,-0.0363,-0.0363,0,0,-0.0407,-0.0408,-0.0396,-0.0394,-0.041,-0.0408,-0.0408,-0.0387,-0.0387,-0.0372,-0.037,-0.0371,-0.0377,-0.0377,-0.0363,-0.0363,0,0,0,-0.0405,-0.0408,-0.0409,-0.0395,-0.0397,-0.0408,-0.0409,-0.0388,-0.0388,-0.037,-0.0371,-0.0377,-0.0376,-0.0363,-0.0363,-0.043,0,0,0,-0.0405,-0.0407,-0.0409,-0.041,-0.0397,-0.0397,-0.041,-0.039,-0.0387,-0.0371,-0.0377,-0.0376,-0.0362,-0.0363,-0.0428,-0.0475,0,0,0,-0.0407,-0.0407,-0.0408,-0.041,-0.0411,-0.0397,-0.0397,-0.039,-0.0387,-0.0378,-0.0376,-0.0362,-0.0363,-0.0426,-0.047,-0.0424,0,0,0,-0.0407,-0.0436,-0.0409,-0.0449,-0.0411,-0.044,-0.0397,-0.041,-0.0408,-0.0377,-0.0362,-0.0363,-0.0425,-0.0468,-0.0423,-0.0389,0,0,0,-0.045,-0.0441,-0.0469,-0.0445,-0.0491,-0.0439,-0.0475,-0.0448,-0.0404,-0.0367,-0.0367,-0.0429,-0.047,-0.0424,-0.0413,0,0,0,0,-0.0488,-0.0504,-0.0514,-0.0534,-0.0535,-0.053,-0.0497,-0.0466,-0.0434,-0.0403,-0.0418,-0.0442,-0.041,-0.0386,-0.0365,-0.0365,-0.0365,-0.0365,-0.0365,-0.0529,-0.0549,-0.0596,-0.0611,-0.062,-0.0593,-0.0579,-0.0525,-0.048,-0.0466,-0.0488,-0.0493,-0.0472,-0.0467,-0.0468,-0.0468,-0.0468,-0.0468,-0.0469,-0.0598,-0.063,-0.0651,-0.0705,-0.0696,-0.0711,-0.0651,-0.0611,-0.0555,-0.0529,-0.0493,-0.0451,-0.0475,-0.0474,-0.0473,-0.0472,-0.0471,-0.0471,-0.0471,-0.0622,-0.0642,-0.0686,-0.0758,-0.0791,-0.0774,-0.0769,-0.0718,-0.062,-0.0611,-0.0514,-0.0516,-0.0516,-0.0566,-0.0566,-0.0566,-0.0566,-0.0566,-0.0566,-0.0624,-0.0671,-0.0736,-0.0803,-0.0843,-0.0864,-0.0833,-0.0777,-0.0685,-0.0592,-0.0615,-0.0524,-0.0521,-0.0519,-0.0567,-0.0567,-0.0567,-0.0567,-0.0566,-0.0653,-0.0677,-0.0765,-0.0822,-0.0909,-0.0914,-0.0898,-0.0756,-0.0677,-0.0566,-0.0544,-0.0545,-0.0504,-0.0501,-0.0497,-0.0539,-0.0539,-0.0539,0,-0.0658,-0.0681,-0.0791,-0.0876,-0.0932,-0.094,-0.0844,-0.0764,-0.0627,-0.0618,-0.0663,-0.0646,-0.0643,-0.0606,-0.0602,-0.0603,0,0,0,-0.0675,-0.0701,-0.0775,-0.0873,-0.0941,-0.0855,-0.0816,-0.0752,-0.0658,-0.0556,-0.0532,-0.0534,-0.0597,-0.0568,-0.0506,-0.0502,-0.0495,0,0]}]]